Location: Kershaw
(34.5481°N, 80.5823°W)
Time: 22:47:19
(UTC+00:00)

Transit 4A - Pass Details

Date: 10 October 2022
Orbit: 871 x 972 km, 66.8° (Epoch: 09 December)

Event Time Altitude Azimuth Distance (km) Brightness Sun altitude
Rises 10:02:06 0° 343° (NNW) 3,477 10.8 -17.6°
Reaches altitude 10° 10:04:53 10° 354° (N) 2,529 10.1 -17.1°
Maximum altitude 10:10:01 31° 55° (NE) 1,476 9.6 -16.0°
Drops below altitude 10° 10:15:07 10° 117° (ESE) 2,517 11.1 -15.0°
Sets 10:17:53 0° 128° (SE) 3,458 11.7 -14.4°
